Probability
0 0 0 0 0 0 0 0 0 0 0 0 0 0 0 0 0 0 0 0 0 0 0 0 0 0 0 0 0 0 0 0 0 0 0 0 0 0
0 0 0 0 0 0 0 0 0 0 0 0 0 0 0 0 0 0 0 0 0 0 0 0 0 0 0 0 0 0 0 0 0 0 0 0 0 0
0 0 0 0 0 0 0 0 0 0 0 0 0 0 0 0 0 0 0 0 0 0 0 0 0 0 0 0 0 0 0 0 0 0 0 0 0 0
0 0 0 0 0 0 0 0 0 0 0 0 0 0 0 0 0 0 0 0 0 0 0 0 0 0 0 0 0 0 0 0 0 0 0 0 0 0
0 0 0 0 0 0 0 0 0 0 0 0 0 0 0 0 0 0 0 0 0 0 0 0 0 0 0 0 0 0 0 0 0 0 0 0 0 0
0 0 0 0 0 0 0 0 0 0 0 0 0 0 0 0 0 0 0 0 0 0 0 0 0 0 0 0 0 0 0 0 0 0 0 0 0 0
0 0 0 0 0 0 0 0 0 0 0 0 0 0 0 0 0 0 0 0 0 0 0 0 0 0 0 0 0 0 0 0 0 0 0 0 0 0
0 0 0 0 0 0 0 0 0 0 0 0 0 0 0 0 0 0 0 0 0 0 0 0 0 0 0 0 0 0 0 0 0 0 0 0 0 0
0 0 0 0 0 0 0 0 0 0 0 0 0 0 0 0 0 0 0 0 0 0 0 0 0 0 0 0 0 0 0 0 0 0 0 0 0 0
0 0 0 0 0 0 0 0 0 0 0 0 0 0 0 0 0 0 0 0 0 0 0 0 0 0 0 0 0 0 0 0 0 0 0 0 0 0
0 0 0 0 0 0 0 0 0 0 0 0 0 0 0 0 0 0 0 0 0 0 0 0 0 0 0 0 0 0 0 0 0 0 0 0 0 0
0 0 0 0 0 0 0 0 0 0 0 0 0 0 0 0 0 0 0 0 0 0 0 0 0 0 0 0 0 0 0 0 0 0 0 0 0 0
0 0 0 0 0 0 0 0 0 0 0 0 0 0 0 0 0 0 0 0 0 0 0 0 0 0 0 0 0 0 0 0 0 0 0 0 0 0
0 0 0 0 0 0 0 0 0 0 0 0 0 0 0 0 0 0 0 0 0 0 0 0 0 0 0 0 0 0 0 0 0 0 0 0 0 0
0 0 0 0 0 0 0 0 0 0 0 0 0 0 0 0 0 0 0 0 0 0 0 0 0 0 0 0 0 0 0 0 0 0 0 0 0 0
0 0 0 0 0 0 0 0 0 0 0 0 0 0 0 0 0 0 0 0 0 0 0 0 0 0 0 0 0 0 0 0 0 0 0 0 0 0
0 0 0 0 0 0 0 0 0 0 0 0 0 0 0 0 0 0 0 0 0 0 0 0 0 0 0 0 0 0 0 0 0 0 0 0 0 0
0 0 0 0 0 0 0 0 0 0 0 0 0 0 0 0 0 0 0 0 0 0 0 0 0 0 0 0 0 0 0 0 0 0 0 0 0 0
0 0 0 0 0 0 0 0 0 0 0 0 0 0 0 0 0 0 0 0 0 0 0 0 0 0 0 0 0 0 0 0 0 0 0 0 0 0
0 0 0 0 0 0 0 0 0 0 0 0 0 0 0 0 0 0 0 0 0 0 0 0 0 0 0 0 0 0 0 0 0 0 0 0 0 0
0 0 0 0 0 0 0 0 0 0 0 0 0 0 0 0 0 0 0 0 0 0 0 0 0 0 0 0 0 0 0 0 0 0 0 0 0 0
0 0 0 0 0 0 0 0 0 0 0 0 0 0 0 0 0 0 0 0 0 0 0 0 0 0 0 0 0 0 0 0 0 0 0 0 0 0
0 0 0 0 0 0 0 0 0 0 0 0 0 0 0 0 0 0 0 0 0 0 0 0 0 0 0 0 0 0 0 0 0 0 0 0 0 0
Wind_Speed
17 16 12 9 8 7 7 8 8 8 9 10 8 9 8 8 9 6 5 5 7 9 9 9 9 9 10 11 11 12 13 13 14 15 16 17 18 18
14 16 15 10 9 8 8 7 8 8 7 7 7 8 11 8 10 7 6 6 10 10 10 10 10 10 10 11 11 12 13 14 15 15 16 17 18 19
17 18 18 15 11 10 9 9 8 8 6 5 5 7 12 11 9 7 6 7 6 10 11 11 11 10 10 11 12 13 14 14 15 15 16 17 18 19
20 20 20 14 16 13 11 12 10 10 8 8 7 8 10 11 10 9 6 6 7 10 12 12 11 10 10 12 13 14 14 14 15 15 16 17 18 19
20 21 20 19 20 15 15 13 11 9 8 7 7 5 5 7 9 8 8 8 7 8 11 12 11 11 11 13 15 14 14 14 15 15 16 17 18 19
20 20 20 22 22 20 16 16 13 12 10 9 7 6 6 7 8 7 7 8 7 6 8 8 9 11 13 15 15 15 14 15 15 16 16 17 19 20
20 21 21 21 23 20 16 17 16 14 12 11 9 8 8 8 9 8 7 6 5 5 5 5 5 5 7 10 13 13 14 15 16 16 17 18 19 20
20 20 20 20 21 29 28 26 25 21 18 15 12 12 13 10 9 8 7 5 4 4 3 4 4 6 7 7 11 15 16 16 17 17 18 19 20 21
20 18 16 16 19 21 27 30 28 29 27 18 17 15 13 14 13 12 8 6 4 3 2 4 5 7 7 8 15 16 17 17 17 17 18 19 21 22
20 19 19 18 19 21 19 20 20 22 23 16 12 10 9 12 12 10 9 6 4 4 4 4 5 6 6 8 14 16 17 16 16 17 19 20 22 23
19 19 19 20 24 29 22 21 20 18 22 20 14 13 16 17 14 10 9 7 5 4 7 5 4 4 6 8 10 15 16 17 18 19 20 20 22 23
15 16 18 19 24 30 23 21 22 19 16 17 16 16 15 16 19 12 10 9 5 4 7 5 4 3 5 5 7 8 11 15 18 19 19 20 21 15
14 14 15 26 28 30 28 19 21 17 17 17 15 14 13 11 12 10 9 8 8 5 5 5 4 4 5 4 6 9 9 9 10 12 15 18 19 17
15 12 14 24 28 30 26 24 26 21 13 14 14 13 13 12 10 9 10 8 7 6 5 6 5 5 5 5 6 6 8 9 10 10 9 13 15 19
14 18 19 24 26 24 29 30 23 16 14 14 14 12 11 11 10 9 9 7 6 6 7 9 9 8 8 8 7 7 7 7 8 7 8 10 11 12
16 15 24 26 23 20 19 22 16 14 14 13 12 11 11 11 10 9 8 7 5 5 8 9 10 10 10 11 10 11 10 8 7 9 11 12 12 12
11 10 12 12 14 14 14 14 14 14 13 11 11 12 11 10 9 8 7 7 6 5 5 6 7 8 11 10 10 11 11 11 11 11 12 14 13 13
14 12 13 14 14 14 14 14 14 14 13 12 12 12 12 11 10 9 8 7 6 5 5 4 4 5 6 8 13 13 10 11 11 12 12 15 18 15
15 12 13 13 13 13 13 12 13 13 12 12 12 12 11 11 10 9 8 7 6 5 5 4 4 4 5 7 6 10 10 10 12 13 13 14 18 18
12 12 12 12 12 12 12 11 11 12 11 11 11 11 11 10 10 9 8 7 6 5 5 5 6 6 6 7 7 8 12 13 12 14 15 15 17 23
10 10 10 10 10 11 11 11 11 11 12 11 11 11 10 9 8 7 7 7 6 5 6 6 6 7 7 7 10 11 9 14 19 17 18 18 20 20
8 9 9 9 10 10 10 10 10 11 12 10 10 10 9 8 8 8 6 6 6 5 6 5 5 6 7 9 12 15 16 14 16 25 27 26 20 20
7 9 10 11 10 9 9 11 12 10 10 10 10 9 8 7 6 6 6 5 4 5 5 5 5 6 7 9 12 14 19 20 16 16 15 21 30 36
Wind_Direction
214 212 213 207 204 196 180 180 182 189 200 191 184 189 188 188 183 203 229 237 264 274 278 280 288 296 302 308 312 314 317 318 319 319 319 319 318 316
214 212 212 207 201 196 188 188 198 203 197 171 182 178 180 187 190 210 231 248 256 262 263 269 278 286 295 302 304 307 310 313 315 316 316 315 314 313
214 214 213 205 201 196 190 186 190 192 180 156 167 168 179 189 194 211 232 242 243 243 253 264 272 282 290 292 297 302 306 309 311 312 312 312 312 310
216 214 214 205 207 199 194 193 192 190 183 169 169 174 188 194 199 211 224 238 245 243 250 259 267 272 276 284 291 296 300 304 306 307 307 308 308 307
220 216 213 204 207 202 199 196 191 186 185 168 163 165 178 189 197 210 225 233 237 241 247 253 252 257 272 283 288 292 296 298 299 300 303 304 305 305
225 220 216 210 208 201 198 196 187 183 183 180 168 168 171 171 188 199 206 214 220 222 235 237 244 259 273 279 284 289 291 291 294 299 303 304 305 304
229 225 221 217 213 204 198 193 186 185 183 189 187 178 181 173 191 186 198 199 224 220 229 223 241 261 273 276 277 279 284 291 297 301 303 303 303 303
232 228 224 218 213 211 208 199 193 188 186 187 192 196 193 184 171 172 176 188 214 187 218 249 258 271 272 270 274 281 287 293 296 297 298 300 301 302
233 230 225 220 212 213 213 209 206 207 198 191 192 195 184 180 171 173 179 186 192 146 205 278 261 253 253 257 267 274 282 286 287 290 294 297 300 301
234 230 227 222 213 209 206 206 206 209 207 202 202 189 175 165 165 162 164 184 231 233 207 259 266 251 248 255 263 267 273 276 281 287 291 294 297 299
234 231 227 224 216 209 205 205 205 207 207 196 189 172 161 158 154 149 160 172 207 217 190 219 248 261 263 259 256 257 263 272 279 285 287 291 296 300
232 228 224 221 215 209 207 204 204 198 188 184 182 176 170 170 172 172 169 178 186 207 182 201 232 243 264 238 241 249 258 267 275 281 287 291 295 296
233 225 222 219 217 213 209 209 208 189 185 181 178 177 174 175 179 176 177 183 190 205 177 193 229 230 244 260 242 244 251 264 276 282 286 289 291 290
236 225 216 213 213 213 213 210 206 189 183 183 180 178 173 172 168 169 174 185 202 213 202 209 231 237 252 262 257 248 250 266 275 280 284 289 289 287
239 225 209 206 208 212 214 207 198 189 183 184 182 177 170 161 152 156 163 177 204 226 234 233 238 245 246 254 268 274 284 278 275 276 286 290 289 289
243 222 207 203 204 204 207 204 195 189 185 184 175 161 150 147 153 155 159 167 187 216 224 231 237 243 250 256 266 275 279 282 283 288 291 287 284 282
227 200 191 191 198 200 199 193 185 180 179 173 160 150 149 150 153 154 156 163 180 185 192 207 229 243 253 262 265 266 273 279 284 293 296 294 289 286
222 197 192 191 194 193 191 183 177 175 171 164 157 155 154 154 152 154 160 172 185 196 207 215 234 256 257 247 240 258 265 275 285 291 296 294 291 288
223 203 196 192 191 187 181 174 171 168 163 160 156 154 151 151 152 157 165 172 183 194 206 218 232 245 267 280 268 241 265 285 294 292 285 280 283 287
216 203 196 191 186 178 170 165 161 158 158 154 150 149 149 149 152 157 164 170 177 187 206 219 228 235 251 279 283 276 272 276 281 285 287 285 281 284
210 197 189 183 173 164 159 157 155 155 153 147 144 143 143 145 149 154 159 167 180 194 210 221 230 250 270 276 273 272 271 271 277 281 289 291 292 291
193 175 163 149 143 143 145 148 149 147 145 140 138 138 140 145 150 156 164 173 187 204 219 234 243 251 257 263 275 286 292 289 281 279 276 273 279 284
152 139 130 128 129 133 139 145 145 144 142 138 136 137 140 144 150 158 167 182 197 212 228 243 250 255 262 271 279 285 292 297 296 292 280 276 276 277